LED1 ENBR-ENSG

Flight info

Callsign LED1
Flight time 0h 41m
Altitude 7000
Route INTUM
Aircraft C208/L-SDFGR/C

Departure

Time 2026-04-27 16:52
Airport Bergen Airport, Flesland (ENBR)

Arrival

Time 2026-04-27 17:33
Airport Sogndal Airport, Haukåsen (ENSG)
Time Latitude Longitude Altitude Speed Heading
2026-04-27 16:22 60.30088 5.22710 157 ft 0 kts 268°
2026-04-27 16:27 60.29963 5.22658 146 ft 0 kts 285°
2026-04-27 16:46 60.29950 5.22643 145 ft 9 kts 176°
2026-04-27 16:46 60.29843 5.22623 145 ft 16 kts 207°
2026-04-27 16:46 60.29769 5.22465 145 ft 16 kts 244°
2026-04-27 16:46 60.29742 5.22205 145 ft 21 kts 259°
2026-04-27 16:47 60.29687 5.22022 146 ft 18 kts 175°
2026-04-27 16:47 60.29528 5.22075 152 ft 27 kts 170°
2026-04-27 16:47 60.29320 5.22145 160 ft 33 kts 170°
2026-04-27 16:47 60.29108 5.22216 161 ft 28 kts 171°
2026-04-27 16:48 60.28919 5.22280 160 ft 26 kts 170°
2026-04-27 16:48 60.28796 5.22322 161 ft 7 kts 170°
2026-04-27 16:48 60.28734 5.22341 162 ft 14 kts 173°
2026-04-27 16:49 60.28413 5.22448 161 ft 24 kts 170°
2026-04-27 16:49 60.28295 5.22457 155 ft 14 kts 217°
2026-04-27 16:49 60.28278 5.22360 153 ft 0 kts 262°
2026-04-27 16:50 60.28276 5.22334 152 ft 7 kts 265°
2026-04-27 16:50 60.28290 5.22189 156 ft 11 kts 304°
2026-04-27 16:50 60.28311 5.22162 157 ft 0 kts 351°
2026-04-27 16:51 60.28363 5.22145 158 ft 30 kts 351°
2026-04-27 16:51 60.28776 5.22009 207 ft 83 kts 349°
2026-04-27 16:51 60.29424 5.21859 401 ft 103 kts 350°
2026-04-27 16:51 60.30171 5.21551 632 ft 116 kts 345°
2026-04-27 16:52 60.30997 5.21192 753 ft 128 kts 346°
2026-04-27 16:52 60.31891 5.20826 808 ft 133 kts 348°
2026-04-27 16:52 60.32852 5.20568 975 ft 142 kts 351°
2026-04-27 16:52 60.33837 5.20330 1276 ft 143 kts 351°
2026-04-27 16:53 60.34817 5.19992 1612 ft 142 kts 347°
2026-04-27 16:53 60.35776 5.19530 1905 ft 143 kts 345°
2026-04-27 16:53 60.36752 5.19158 2147 ft 145 kts 352°
2026-04-27 16:53 60.37762 5.18955 2413 ft 148 kts 353°
2026-04-27 16:54 60.38776 5.18714 2699 ft 147 kts 351°
2026-04-27 16:54 60.39795 5.18343 2956 ft 148 kts 349°
2026-04-27 16:54 60.40811 5.17949 3241 ft 148 kts 348°
2026-04-27 16:54 60.41809 5.17546 3598 ft 144 kts 349°
2026-04-27 16:55 60.42790 5.17218 3954 ft 141 kts 355°
2026-04-27 16:55 60.43724 5.17634 4325 ft 138 kts 28°
2026-04-27 16:55 60.44533 5.18650 4705 ft 136 kts 34°
2026-04-27 16:55 60.45320 5.19715 5078 ft 136 kts 33°
2026-04-27 16:56 60.46108 5.20754 5443 ft 135 kts 32°
2026-04-27 16:56 60.46899 5.21770 5806 ft 134 kts 32°
2026-04-27 16:56 60.47684 5.22761 6164 ft 132 kts 31°
2026-04-27 16:56 60.48480 5.23754 6429 ft 137 kts 31°
2026-04-27 16:57 60.49301 5.24775 6686 ft 140 kts 30°
2026-04-27 16:57 60.50140 5.25812 6889 ft 145 kts 30°
2026-04-27 16:57 60.51048 5.26935 6946 ft 156 kts 30°
2026-04-27 16:57 60.51995 5.28115 6975 ft 163 kts 30°
2026-04-27 16:58 60.52979 5.29337 6981 ft 168 kts 30°
2026-04-27 16:58 60.53987 5.30581 6985 ft 171 kts 30°
2026-04-27 16:58 60.55009 5.31842 6985 ft 172 kts 30°
2026-04-27 16:58 60.56034 5.33106 6985 ft 172 kts 30°
2026-04-27 16:59 60.57059 5.34370 6980 ft 172 kts 30°
2026-04-27 16:59 60.58083 5.35642 6990 ft 173 kts 31°
2026-04-27 16:59 60.59111 5.36919 6988 ft 172 kts 31°
2026-04-27 16:59 60.60132 5.38188 6992 ft 171 kts 30°
2026-04-27 17:00 60.61818 5.40287 6993 ft 171 kts 31°
2026-04-27 17:00 60.63162 5.41964 6997 ft 171 kts 31°
2026-04-27 17:00 60.64177 5.43233 6995 ft 171 kts 30°
2026-04-27 17:01 60.65192 5.44499 6983 ft 172 kts 31°
2026-04-27 17:01 60.66210 5.45765 6980 ft 171 kts 31°
2026-04-27 17:01 60.67226 5.47036 6977 ft 171 kts 31°
2026-04-27 17:01 60.68240 5.48305 6986 ft 171 kts 32°
2026-04-27 17:02 60.69253 5.49570 6978 ft 171 kts 31°
2026-04-27 17:02 60.70266 5.50838 6977 ft 171 kts 31°
2026-04-27 17:02 60.71279 5.52110 6973 ft 171 kts 31°
2026-04-27 17:02 60.72288 5.53378 6973 ft 170 kts 31°
2026-04-27 17:03 60.73298 5.54644 6983 ft 170 kts 31°
2026-04-27 17:03 60.74305 5.55911 6974 ft 170 kts 31°
2026-04-27 17:03 60.75317 5.57179 6982 ft 171 kts 31°
2026-04-27 17:03 60.76332 5.58445 6979 ft 171 kts 32°
2026-04-27 17:04 60.77340 5.59720 6976 ft 170 kts 31°
2026-04-27 17:04 60.78348 5.60995 6976 ft 170 kts 31°
2026-04-27 17:04 60.79355 5.62270 6977 ft 171 kts 31°
2026-04-27 17:04 60.80364 5.63545 6977 ft 170 kts 31°
2026-04-27 17:05 60.81372 5.64818 6976 ft 170 kts 31°
2026-04-27 17:05 60.82373 5.66085 6975 ft 169 kts 31°
2026-04-27 17:05 60.83376 5.67355 6979 ft 170 kts 31°
2026-04-27 17:05 60.84045 5.68200 6982 ft 170 kts 32°
2026-04-27 17:06 60.85395 5.69906 6980 ft 170 kts 31°
2026-04-27 17:06 60.86401 5.71184 6977 ft 170 kts 32°
2026-04-27 17:06 60.87408 5.72466 6977 ft 170 kts 32°
2026-04-27 17:06 60.88416 5.73746 6977 ft 170 kts 32°
2026-04-27 17:07 60.89422 5.75024 6978 ft 170 kts 32°
2026-04-27 17:07 60.90423 5.76295 6979 ft 169 kts 32°
2026-04-27 17:07 60.91425 5.77574 6981 ft 170 kts 32°
2026-04-27 17:07 60.92432 5.78862 6961 ft 171 kts 31°
2026-04-27 17:08 60.93449 5.80154 6967 ft 172 kts 31°
2026-04-27 17:08 60.94469 5.81453 6968 ft 173 kts 31°
2026-04-27 17:08 60.95494 5.82754 6970 ft 174 kts 31°
2026-04-27 17:08 60.96521 5.84072 6970 ft 174 kts 32°
2026-04-27 17:09 60.97375 5.85809 6961 ft 175 kts 57°
2026-04-27 17:09 60.97920 5.88045 6963 ft 175 kts 62°
2026-04-27 17:09 60.98469 5.90277 6968 ft 175 kts 62°
2026-04-27 17:09 60.99025 5.92505 6971 ft 175 kts 61°
2026-04-27 17:10 60.99581 5.94732 6964 ft 175 kts 61°
2026-04-27 17:10 61.00134 5.96954 6964 ft 174 kts 61°
2026-04-27 17:10 61.00686 5.99169 6964 ft 174 kts 61°
2026-04-27 17:10 61.01238 6.01398 6970 ft 175 kts 62°
2026-04-27 17:11 61.01788 6.03633 6971 ft 175 kts 62°
2026-04-27 17:11 61.02895 6.08097 6969 ft 175 kts 61°
2026-04-27 17:11 61.03445 6.10329 6960 ft 175 kts 62°
2026-04-27 17:12 61.04546 6.14805 6960 ft 175 kts 62°
2026-04-27 17:12 61.05097 6.17047 6957 ft 175 kts 62°
2026-04-27 17:12 61.05647 6.19284 6957 ft 175 kts 62°
2026-04-27 17:13 61.06194 6.21517 6961 ft 174 kts 62°
2026-04-27 17:13 61.06740 6.23750 6965 ft 174 kts 62°
2026-04-27 17:13 61.07291 6.25990 6968 ft 175 kts 62°
2026-04-27 17:13 61.07843 6.28246 6967 ft 176 kts 62°
2026-04-27 17:14 61.08395 6.30498 6966 ft 176 kts 62°
2026-04-27 17:14 61.08946 6.32756 6963 ft 175 kts 62°
2026-04-27 17:14 61.09486 6.34976 6959 ft 175 kts 62°
2026-04-27 17:14 61.10039 6.37248 6962 ft 175 kts 62°
2026-04-27 17:15 61.10577 6.39459 6960 ft 174 kts 62°
2026-04-27 17:15 61.11128 6.41723 6960 ft 174 kts 62°
2026-04-27 17:15 61.11670 6.43960 6965 ft 174 kts 62°
2026-04-27 17:15 61.12212 6.46193 6961 ft 174 kts 62°
2026-04-27 17:16 61.12752 6.48429 6964 ft 174 kts 62°
2026-04-27 17:16 61.13294 6.50667 6967 ft 174 kts 62°
2026-04-27 17:16 61.13831 6.52881 6963 ft 174 kts 62°
2026-04-27 17:16 61.14378 6.55150 6963 ft 174 kts 62°
2026-04-27 17:17 61.14918 6.57394 6958 ft 174 kts 62°
2026-04-27 17:17 61.15465 6.59654 6853 ft 176 kts 62°
2026-04-27 17:17 61.16004 6.61888 6725 ft 176 kts 62°
2026-04-27 17:18 61.17092 6.66410 6465 ft 176 kts 62°
2026-04-27 17:18 61.17644 6.68704 6340 ft 175 kts 62°
2026-04-27 17:18 61.18176 6.70923 6279 ft 173 kts 62°
2026-04-27 17:18 61.18717 6.73182 6274 ft 173 kts 62°
2026-04-27 17:19 61.19251 6.75409 6273 ft 172 kts 62°
2026-04-27 17:19 61.19783 6.77635 6268 ft 172 kts 62°
2026-04-27 17:19 61.20304 6.79825 6270 ft 172 kts 62°
2026-04-27 17:19 61.20834 6.82044 6270 ft 171 kts 62°
2026-04-27 17:20 61.21362 6.84262 6271 ft 172 kts 62°
2026-04-27 17:20 61.21891 6.86482 6271 ft 172 kts 62°
2026-04-27 17:20 61.22419 6.88705 6272 ft 172 kts 62°
2026-04-27 17:20 61.22950 6.90930 6272 ft 172 kts 62°
2026-04-27 17:21 61.23308 6.92436 6271 ft 172 kts 62°
2026-04-27 17:21 61.23837 6.94668 6272 ft 172 kts 62°
2026-04-27 17:21 61.24367 6.96901 6276 ft 172 kts 62°
2026-04-27 17:21 61.24897 6.99137 6265 ft 173 kts 62°
2026-04-27 17:22 61.25430 7.01385 6261 ft 173 kts 62°
2026-04-27 17:22 61.25960 7.03626 6260 ft 173 kts 62°
2026-04-27 17:22 61.26490 7.05875 6267 ft 173 kts 62°
2026-04-27 17:22 61.27020 7.08129 6274 ft 174 kts 62°
2026-04-27 17:23 61.27554 7.10388 6271 ft 174 kts 62°
2026-04-27 17:23 61.28082 7.12640 6270 ft 173 kts 62°
2026-04-27 17:23 61.28611 7.14893 6269 ft 173 kts 62°
2026-04-27 17:23 61.29139 7.17142 6272 ft 173 kts 62°
2026-04-27 17:24 61.29661 7.19361 6280 ft 174 kts 62°
2026-04-27 17:24 61.30191 7.21623 6278 ft 174 kts 63°
2026-04-27 17:24 61.30720 7.23889 6272 ft 174 kts 62°
2026-04-27 17:24 61.31249 7.26151 6268 ft 174 kts 62°
2026-04-27 17:25 61.31776 7.28402 6255 ft 172 kts 62°
2026-04-27 17:25 61.32298 7.30637 6261 ft 171 kts 63°
2026-04-27 17:25 61.32816 7.32869 6269 ft 171 kts 62°
2026-04-27 17:25 61.33335 7.35105 6275 ft 172 kts 62°
2026-04-27 17:26 61.33692 7.37477 6272 ft 174 kts 83°
2026-04-27 17:26 61.33520 7.39958 6271 ft 175 kts 110°
2026-04-27 17:26 61.32811 7.42004 6276 ft 177 kts 142°
2026-04-27 17:26 61.31727 7.43225 6280 ft 178 kts 149°
2026-04-27 17:27 61.30717 7.44721 6272 ft 178 kts 140°
2026-04-27 17:27 61.29752 7.46332 6275 ft 178 kts 141°
2026-04-27 17:27 61.28682 7.47579 6267 ft 178 kts 164°
2026-04-27 17:27 61.27451 7.47664 6147 ft 179 kts 193°
2026-04-27 17:28 61.26368 7.46507 6010 ft 176 kts 223°
2026-04-27 17:28 61.25691 7.44435 5876 ft 173 kts 243°
2026-04-27 17:28 61.24236 7.40461 5606 ft 173 kts 233°
2026-04-27 17:29 61.23558 7.38419 5578 ft 169 kts 237°
2026-04-27 17:29 61.22907 7.36371 5227 ft 169 kts 237°
2026-04-27 17:29 61.22275 7.34417 4889 ft 158 kts 236°
2026-04-27 17:29 61.21661 7.32584 4587 ft 152 kts 236°
2026-04-27 17:30 61.21059 7.30809 4305 ft 149 kts 235°
2026-04-27 17:30 61.19946 7.27486 3716 ft 131 kts 236°
2026-04-27 17:30 61.19433 7.25974 3459 ft 125 kts 236°
2026-04-27 17:31 61.18961 7.24569 3215 ft 115 kts 236°
2026-04-27 17:31 61.18521 7.23213 3024 ft 112 kts 238°
2026-04-27 17:31 61.18094 7.21883 2831 ft 110 kts 237°
2026-04-27 17:31 61.17665 7.20565 2658 ft 109 kts 238°
2026-04-27 17:32 61.17267 7.19326 2467 ft 100 kts 238°
2026-04-27 17:32 61.16565 7.17052 2075 ft 88 kts 240°
2026-04-27 17:32 61.16262 7.16015 1869 ft 76 kts 238°
2026-04-27 17:33 61.16015 7.15165 1767 ft 67 kts 240°
2026-04-27 17:33 61.15773 7.14312 1671 ft 69 kts 240°
2026-04-27 17:33 61.15555 7.13540 1644 ft 46 kts 240°
2026-04-27 17:33 61.15482 7.13271 1644 ft 7 kts 145°
2026-04-27 17:34 61.15528 7.13445 1644 ft 21 kts 59°
2026-04-27 17:34 61.15597 7.13682 1644 ft 13 kts 36°
2026-04-27 17:34 61.15666 7.13640 1644 ft 4 kts 331°
2026-04-27 17:34 61.15701 7.13571 1644 ft 8 kts 248°
2026-04-27 17:35 61.15675 7.13574 1644 ft 0 kts 63°